Date,TemperatureHighF,TemperatureAvgF,TemperatureLowF,DewpointHighF,DewpointAvgF,DewpointLowF,HumidityHigh,HumidityAvg,HumidityLow,PressureMaxIn,PressureMinIn,WindSpeedMaxMPH,WindSpeedAvgMPH,GustSpeedMaxMPH,PrecipitationSumIn
2014-1-1,36.9,26.5,19.4,17.4,12.5,10.2,67,56,40,30.50,30.34,5,2,19,0.11
2014-1-2,41.9,24.6,11.2,17.6,11.3,5.4,80,59,33,30.63,30.44,3,0,12,0.00
2014-1-3,45.3,28.6,14.4,17.5,12.8,8.3,80,54,29,30.44,29.93,4,0,10,0.00
2014-1-4,30.8,29.8,28.8,16.0,14.7,12.9,58,53,47,29.93,29.84,1,0,4,0.00
2014-2-11,28.6,28.2,27.7,20.2,18.5,17.3,72,67,63,30.38,30.35,2,1,7,0.00
2014-2-12,34.4,30.6,25.6,25.9,22.4,19.0,76,71,66,30.41,30.18,2,0,7,0.00
2014-2-13,49.7,39.3,33.7,31.8,28.1,25.9,84,65,43,30.18,29.93,8,2,22,0.01
2014-2-14,50.5,39.7,33.8,30.5,28.6,25.6,80,65,42,30.11,29.99,6,2,20,0.01
2014-2-15,53.9,44.3,37.1,31.9,28.6,23.4,74,55,36,30.07,29.97,5,1,16,0.00
2014-2-16,57.3,43.0,34.2,29.5,25.0,14.4,65,50,30,30.12,29.72,11,4,32,0.00
2014-2-17,52.8,36.6,21.1,20.2,14.1,8.2,63,42,17,30.32,30.03,7,2,21,0.00
2014-2-18,52.9,39.5,25.8,22.0,16.8,13.0,64,41,25,30.08,29.98,9,2,19,0.00
2014-2-19,55.1,35.7,22.3,30.4,21.0,16.2,93,59,24,29.98,29.51,10,2,23,0.00
2014-2-20,32.9,23.1,15.5,16.9,8.4,4.1,81,55,31,30.32,29.87,7,3,20,0.06
2014-2-21,45.6,33.3,16.9,24.9,12.4,4.9,72,44,27,30.29,29.99,9,2,23,0.01
2014-2-22,48.1,35.4,23.1,17.6,13.8,10.6,63,43,24,30.00,29.86,7,2,23,0.00
2014-2-23,55.3,39.3,26.8,19.9,16.0,12.7,60,41,21,30.11,29.98,5,1,16,0.00
2014-2-24,56.6,40.8,27.3,22.1,17.3,12.6,55,40,22,30.10,30.01,8,2,18,0.00
2014-2-25,58.5,44.9,34.6,25.6,21.3,17.6,63,41,22,30.02,29.83,5,1,17,0.00
2014-2-26,55.2,41.8,30.7,28.3,23.3,18.8,83,51,25,29.98,29.86,4,1,13,0.00
2014-2-27,53.0,37.7,31.2,34.0,25.7,18.4,90,64,37,29.90,29.57,8,2,20,0.10
2014-2-28,51.1,39.7,33.1,33.5,27.0,18.6,91,63,29,29.87,29.68,6,2,18,0.00
2014-3-1,49.3,40.2,33.7,35.7,31.4,26.6,92,72,44,29.82,29.56,8,2,20,0.38
2014-3-2,51.0,38.6,32.3,37.1,29.5,24.2,94,73,38,30.10,29.82,8,1,15,0.04
2014-3-3,54.8,38.5,30.6,32.4,25.7,21.7,77,61,34,30.16,30.02,4,1,13,0.00
2014-3-4,54.2,39.3,27.5,32.6,25.1,18.3,85,59,33,30.08,29.82,7,2,15,0.01
2014-3-5,54.6,38.6,25.7,28.4,21.7,17.3,86,55,24,30.24,30.07,4,1,11,0.00
2014-3-6,62.5,42.1,25.8,31.6,20.8,15.1,75,45,19,30.22,29.86,9,2,16,0.00
2014-3-7,38.9,34.4,30.6,34.2,31.0,28.3,93,88,74,30.15,29.77,4,1,14,0.33
2014-3-8,50.0,36.1,24.4,34.0,25.2,20.2,94,69,32,30.47,30.15,3,1,17,0.09
2014-3-9,59.2,39.3,21.1,25.4,18.4,12.9,75,47,18,30.53,30.24,5,2,14,0.00
2014-3-10,65.8,45.9,26.8,23.3,13.7,2.1,56,32,8,30.27,29.68,7,2,17,0.00
2014-3-11,52.1,36.1,23.3,28.7,22.1,10.7,92,62,19,30.28,29.63,12,3,20,0.03
2014-3-12,52.8,31.9,15.1,17.3,12.4,7.4,81,50,16,30.57,30.28,3,1,11,0.02
2014-3-13,56.9,41.0,21.3,24.2,18.2,10.0,64,43,21,30.35,29.96,4,1,13,0.00
2014-3-14,56.7,41.3,27.5,24.0,19.1,13.0,71,45,21,30.10,29.92,7,2,19,0.00
2014-3-15,44.3,34.9,27.7,29.0,16.8,8.0,88,50,23,30.43,29.96,12,2,24,0.00
2014-3-16,57.2,37.6,21.1,18.7,14.3,10.2,63,42,20,30.56,30.18,5,2,13,0.00
2014-3-17,59.0,41.2,28.8,22.6,16.0,2.9,61,38,18,30.18,29.31,11,4,30,0.00
2014-3-18,45.1,31.9,24.3,23.7,14.3,3.7,76,50,30,30.13,29.65,8,2,21,0.00
2014-3-19,52.2,33.9,18.4,17.6,14.1,11.2,78,49,20,30.35,30.13,9,1,19,0.00
2014-3-20,57.9,38.9,21.8,15.1,9.7,5.2,52,33,13,30.26,29.96,8,2,17,0.00
2014-3-21,58.3,42.9,28.5,21.0,13.6,10.1,47,32,16,30.00,29.84,6,2,15,0.00
2014-3-22,47.2,38.5,27.0,34.1,25.2,17.8,92,61,33,30.21,29.77,5,2,14,0.10
2014-3-23,56.3,36.6,17.9,23.6,13.6,5.8,74,45,16,30.35,30.09,8,2,19,0.00
2014-3-24,57.6,41.4,26.4,14.5,11.0,7.5,52,31,14,30.20,30.08,8,2,23,0.00
2014-3-25,67.2,44.9,27.6,20.6,15.1,11.3,52,33,14,30.18,29.72,5,2,16,0.00
2014-3-26,53.4,40.0,34.4,36.7,25.0,13.1,92,59,29,29.72,29.36,12,2,21,0.23
2014-3-27,42.2,35.6,30.9,36.3,31.4,28.2,95,85,71,29.96,29.46,7,2,16,0.24
2014-3-28,49.5,36.0,24.7,32.5,24.0,16.4,94,66,28,30.31,29.96,5,2,17,0.10
2014-3-29,59.0,40.9,22.5,24.3,17.9,13.0,69,43,22,30.34,29.98,6,3,19,0.00
2014-3-30,59.9,46.3,34.6,33.4,21.5,16.2,83,40,20,29.98,29.38,12,4,33,0.02
2014-3-31,50.8,38.4,27.2,27.9,20.6,7.3,91,55,21,29.98,29.68,11,3,22,0.03
2014-4-1,52.5,41.7,34.4,30.7,23.1,12.2,85,51,21,29.84,29.59,7,3,22,0.01
2014-4-2,44.2,36.0,28.8,33.3,27.0,13.5,92,72,29,29.79,29.60,8,2,25,0.13
2014-4-3,45.1,33.7,27.8,30.0,25.3,15.5,92,73,36,30.17,29.78,8,2,20,0.05
2014-4-4,51.7,36.4,21.6,23.0,16.8,11.5,67,48,24,30.20,29.95,6,2,15,0.00
2014-4-5,55.3,41.3,30.0,27.2,23.2,18.9,71,51,25,29.99,29.74,6,1,15,0.00
2014-4-6,51.6,39.0,28.5,28.9,24.5,16.8,87,60,26,30.05,29.89,9,2,23,0.00
2014-4-7,52.7,40.4,31.5,33.8,26.7,20.2,93,63,29,30.29,30.05,6,2,15,0.08
2014-4-8,66.6,48.9,30.4,29.6,26.3,24.1,79,46,21,30.34,30.11,5,2,14,0.00
2014-4-9,71.7,52.6,34.3,30.9,22.9,16.1,62,36,15,30.15,29.83,7,2,24,0.00
2014-4-10,49.9,47.2,44.2,21.4,19.9,18.7,39,34,29,29.85,29.82,4,1,9,0.00
2014-4-11,66.8,57.6,48.3,22.3,20.1,17.2,35,24,17,29.72,29.70,5,2,16,0.00
2014-4-12,68.2,52.8,41.2,38.3,25.4,19.0,83,37,16,29.72,29.48,11,3,23,0.03
2014-4-13,44.7,36.9,25.9,39.5,32.8,20.5,94,85,76,30.04,29.43,8,2,18,0.31
2014-4-14,45.0,31.7,19.6,19.9,15.0,7.8,80,54,24,30.42,30.04,6,2,16,0.00
2014-4-15,60.5,41.5,21.7,22.8,17.2,12.4,70,42,20,30.37,29.75,6,2,17,0.00
2014-4-16,58.2,47.7,36.5,22.7,17.4,12.3,52,31,17,29.88,29.69,6,2,19,0.00
2014-4-17,66.6,47.3,29.1,25.2,21.9,17.8,64,40,20,30.05,29.88,7,2,17,0.00
2014-4-18,73.2,54.2,36.4,32.2,25.3,21.5,55,36,17,30.00,29.73,8,2,24,0.00
2014-4-19,65.3,54.5,45.4,37.7,33.6,29.4,59,46,33,29.88,29.74,5,2,13,0.00
2014-4-20,71.4,52.6,41.3,43.0,35.8,29.7,85,57,22,30.05,29.84,7,2,15,0.10
2014-4-21,72.0,52.4,36.5,42.2,33.5,24.9,92,58,18,30.15,29.95,6,2,16,0.00
2014-4-22,59.0,56.9,55.6,33.8,32.7,29.1,42,40,32,29.54,29.48,5,2,15,0.00
2014-4-23,59.4,50.3,35.4,33.4,23.0,14.6,53,35,27,29.84,29.43,9,4,28,0.00
2014-4-24,65.4,45.5,25.9,22.6,16.2,12.1,63,35,15,30.10,29.84,8,2,20,0.00
2014-4-25,72.7,53.5,34.7,27.6,18.0,10.5,50,28,10,29.94,29.48,9,2,24,0.00
2014-4-26,66.0,49.9,35.1,36.4,28.4,21.0,93,49,20,29.51,29.15,12,4,39,0.03
2014-4-27,47.7,37.9,33.2,34.1,29.8,26.3,93,74,43,29.82,29.34,10,3,21,0.08
2014-4-28,45.7,35.7,29.8,31.5,23.5,17.3,88,63,34,30.18,29.79,10,2,24,0.00
2014-4-29,46.9,36.6,28.7,29.3,21.0,15.2,78,55,31,30.36,30.19,8,2,17,0.02
2014-4-30,50.8,39.1,31.8,29.1,20.1,14.2,70,48,26,30.36,30.25,7,2,16,0.00
2014-5-1,60.6,42.9,24.7,20.4,17.2,14.1,65,39,18,30.39,30.12,8,2,19,0.00
2014-5-2,72.5,58.0,34.7,29.7,25.7,18.5,53,31,19,30.17,29.89,6,2,16,0.00
2014-5-3,78.3,59.2,38.7,33.8,25.1,18.7,60,32,11,29.95,29.72,9,3,20,0.00
2014-5-4,76.5,63.7,49.9,27.4,20.5,14.6,35,21,11,29.75,29.59,9,3,28,0.00
2014-5-5,77.4,61.0,44.3,25.9,16.5,9.6,37,19,8,29.73,29.51,7,3,20,0.00
2014-5-6,73.8,60.5,49.8,26.5,19.0,14.8,33,20,13,29.51,29.28,7,2,22,0.00
2014-5-7,67.2,51.5,39.2,25.2,17.9,9.4,47,28,12,29.62,29.35,9,2,26,0.00
2014-5-8,54.7,41.0,34.9,41.4,30.3,17.8,94,68,35,30.00,29.62,9,1,22,0.18
2014-5-9,54.5,43.3,33.1,40.5,34.5,29.5,89,73,41,29.99,29.78,6,2,16,0.06
2014-5-10,59.5,45.2,37.5,44.2,39.2,34.6,93,80,51,29.91,29.56,10,1,18,0.29
2014-5-11,50.9,39.7,32.8,43.6,36.5,30.6,95,88,62,29.84,29.47,5,1,15,0.49
2014-5-12,42.6,35.3,31.1,33.0,30.2,27.3,93,82,65,30.34,29.84,5,2,15,0.52
2014-5-13,51.5,38.0,27.8,28.1,23.6,16.7,85,59,26,30.52,30.34,6,1,17,0.00
2014-5-14,58.6,45.8,29.0,27.9,23.8,19.6,82,45,25,30.55,30.29,6,2,19,0.00
2014-5-15,64.5,50.3,38.1,35.5,31.2,26.9,68,50,30,30.29,30.05,8,2,17,0.00
2014-5-16,72.3,53.4,39.3,42.7,34.8,29.2,81,53,23,30.08,29.87,9,2,19,0.02
2014-5-17,77.7,58.8,39.4,42.0,33.7,26.1,86,47,17,29.91,29.69,7,2,19,0.00
2014-5-18,80.5,62.6,45.8,40.2,26.7,18.3,49,29,12,29.71,29.45,9,3,26,0.00
2014-5-19,78.8,68.1,55.0,25.8,18.1,11.9,25,15,10,29.52,29.43,9,4,30,0.00
2014-5-20,81.0,64.8,48.0,29.0,20.1,12.8,34,19,11,29.64,29.50,6,2,17,0.00
2014-5-21,76.7,59.9,45.9,35.0,28.7,21.7,49,32,17,29.84,29.63,8,2,20,0.00
2014-5-22,80.0,59.7,42.3,43.5,34.6,30.6,64,42,18,29.94,29.77,6,1,20,0.02
2014-5-23,74.7,56.7,47.2,46.6,39.9,35.3,89,57,27,29.88,29.69,10,2,22,0.16
2014-5-24,72.1,54.0,41.8,47.2,40.8,35.3,92,66,27,29.88,29.70,6,1,15,0.35
2014-5-25,59.6,48.3,42.2,49.1,43.5,38.9,94,84,58,30.02,29.76,5,1,15,0.20
2014-5-26,77.5,56.3,37.0,44.9,38.4,33.4,92,58,22,30.11,29.89,4,1,13,0.01
2014-5-27,85.7,64.7,45.2,48.0,38.8,31.1,75,44,15,29.99,29.80,7,2,16,0.00
2014-5-28,91.4,66.5,45.1,43.3,33.8,-99.9,67,35,11,29.93,29.65,12,2,22,0.00
2014-5-29,82.5,68.2,56.4,45.6,38.3,34.1,51,35,19,29.75,29.63,5,2,16,0.00
2014-5-30,74.3,60.2,53.5,53.4,45.5,39.2,90,60,31,29.85,29.74,4,1,12,0.07
2014-5-31,84.8,65.6,46.7,49.5,37.7,21.7,81,44,12,29.96,29.62,8,2,20,0.00
2014-6-1,82.3,68.9,55.3,41.8,29.5,18.3,46,26,12,29.68,29.53,8,3,21,0.00
2014-6-2,85.8,65.0,43.2,37.4,26.3,19.5,49,27,9,29.83,29.66,7,2,17,0.00
2014-6-3,84.7,70.1,54.1,31.2,26.2,19.8,34,21,11,29.67,29.51,7,3,20,0.00
2014-6-4,86.5,65.8,43.8,34.2,23.2,15.4,46,23,8,29.73,29.57,7,2,22,0.00
2014-6-5,83.5,64.4,45.9,39.0,29.2,23.1,49,29,13,29.75,29.58,8,2,18,0.00
2014-6-6,84.8,63.5,44.7,42.0,31.4,21.7,63,33,10,29.72,29.57,6,2,16,0.02
2014-6-7,85.5,65.1,46.3,38.4,29.9,24.8,53,30,13,29.76,29.55,5,1,15,0.00
2014-6-8,71.2,54.9,41.8,47.3,36.5,28.8,90,54,26,29.99,29.58,12,2,27,0.16
2014-6-9,75.3,54.9,35.2,43.8,35.1,29.0,95,56,20,30.12,29.89,5,1,12,0.01
2014-6-10,82.1,61.7,42.1,44.2,34.8,29.7,68,40,18,29.92,29.69,10,2,25,0.00
2014-6-11,78.2,64.3,53.6,43.1,37.7,33.8,58,39,23,29.78,29.60,7,2,16,0.00
2014-6-12,66.6,57.0,45.5,39.2,38.2,36.8,75,51,34,29.80,29.75,6,1,18,0.00
2014-6-13,84.8,67.7,46.1,42.9,32.3,26.4,64,32,13,29.77,29.41,8,2,29,0.00
2014-6-14,73.3,60.7,47.3,35.0,29.3,20.6,50,31,19,29.67,29.38,10,2,25,0.00
2014-6-15,78.7,58.4,39.4,35.4,25.2,16.2,60,33,12,29.78,29.57,7,2,24,0.00
2014-6-16,79.3,69.0,55.3,28.1,21.0,15.0,31,17,11,29.60,29.44,8,3,27,0.00
2014-6-17,82.7,72.8,60.6,33.4,26.0,15.1,31,18,12,29.50,29.32,9,4,33,0.00
2014-6-18,75.5,58.4,42.4,37.5,31.2,26.5,62,38,21,29.79,29.44,12,2,28,0.00
2014-6-19,79.9,61.2,41.1,35.1,30.6,24.2,69,35,15,29.96,29.80,7,2,18,0.00
2014-6-20,87.0,64.6,41.4,35.3,30.1,26.5,56,31,13,30.00,29.74,8,2,23,0.00
2014-6-21,86.4,68.2,53.1,41.5,32.8,28.9,48,29,14,29.76,29.58,5,1,16,0.00
2014-6-22,81.6,65.5,51.9,41.6,33.8,30.3,47,32,17,29.75,29.59,8,2,18,0.00
2014-6-23,82.9,63.0,47.9,43.2,36.8,33.2,58,40,20,29.85,29.71,7,1,17,0.00
2014-6-24,88.5,67.1,49.4,42.6,37.3,31.5,62,37,15,29.86,29.70,10,2,24,0.00
2014-6-25,89.8,69.6,48.6,44.1,33.4,27.1,59,31,12,29.77,29.56,10,1,21,0.00
2014-6-26,88.7,71.0,51.5,39.6,30.1,24.4,40,24,12,29.63,29.38,6,2,20,0.00
2014-6-27,77.9,67.2,56.7,40.2,35.4,30.0,50,32,21,29.54,29.40,9,2,24,0.00
2014-6-28,83.0,65.6,48.8,46.8,37.0,28.6,78,41,16,29.74,29.55,6,2,16,0.00
2014-6-29,90.1,70.7,49.0,40.8,32.5,28.8,47,28,13,29.79,29.62,8,3,20,0.00
2014-6-30,90.0,73.3,54.8,42.4,34.4,29.4,46,26,14,29.68,29.55,9,2,21,0.00
2014-7-1,87.1,68.9,47.7,35.6,28.9,14.8,51,26,8,29.79,29.64,6,2,17,0.00
2014-7-2,90.8,69.2,46.6,42.3,33.4,27.3,61,30,12,29.88,29.70,6,1,13,0.00
2014-7-3,95.0,71.7,51.3,43.1,36.9,32.7,53,31,13,29.84,29.67,5,1,14,0.00
2014-7-4,92.0,73.1,59.3,47.9,42.2,38.4,52,35,17,29.85,29.69,5,2,16,0.00
2014-7-5,92.5,70.2,53.1,47.1,42.5,39.4,64,40,16,29.93,29.78,6,1,15,0.00
2014-7-6,94.0,71.1,52.8,47.3,41.5,38.5,60,37,17,29.95,29.75,6,2,17,0.00
2014-7-7,92.8,75.0,56.1,48.5,41.9,35.7,54,33,17,29.79,29.59,5,1,12,0.00
2014-7-8,96.6,74.6,54.0,47.5,41.7,34.3,60,35,12,29.78,29.59,7,2,19,0.00
2014-7-9,95.0,73.4,57.3,49.4,42.5,38.3,52,35,15,29.78,29.58,8,2,18,0.00
2014-7-10,69.4,62.7,59.6,55.0,45.0,40.3,73,53,44,29.73,29.64,7,1,15,0.00
2014-7-11,86.1,69.4,55.8,60.1,54.3,48.6,93,63,30,29.84,29.67,7,2,18,0.15
2014-7-12,90.4,72.2,55.8,55.4,51.7,46.4,86,53,24,29.88,29.74,10,2,22,0.00
2014-7-13,92.0,74.4,56.4,52.6,48.3,43.6,73,44,22,29.90,29.69,6,1,15,0.00
2014-7-14,65.8,60.9,57.0,46.1,44.2,43.3,61,54,47,29.87,29.79,2,1,10,0.00
2014-7-15,91.5,75.6,61.4,56.1,47.9,44.6,65,40,21,29.76,29.58,5,2,14,0.05
2014-7-16,84.2,68.3,56.8,56.7,48.6,43.0,76,53,27,29.68,29.52,9,2,21,0.05
2014-7-17,85.3,67.8,50.3,47.9,43.8,40.7,77,47,22,29.76,29.64,5,2,14,0.00
2014-7-18,87.8,70.4,51.3,47.1,42.1,39.6,66,40,19,29.78,29.65,9,2,22,0.00
2014-7-19,92.3,73.2,55.2,48.3,40.9,36.7,57,34,17,29.77,29.62,5,2,15,0.00
2014-7-20,91.8,68.3,54.9,54.2,44.1,36.5,67,44,17,29.82,29.65,8,2,26,0.07
2014-7-21,91.1,71.2,51.5,51.4,43.8,36.9,75,44,17,29.92,29.79,4,1,12,0.00
2014-7-22,96.6,62.8,52.1,44.2,31.0,28.5,53,26,9,29.99,29.80,3,1,11,0.00
2014-7-23,97.6,75.3,60.0,50.6,43.8,35.8,55,35,14,29.92,29.69,9,2,20,0.06
2014-7-24,84.5,68.9,62.6,56.0,50.7,45.8,72,53,31,29.84,29.73,5,2,15,0.03
2014-7-25,91.2,67.8,54.8,58.4,50.4,46.6,76,57,23,29.88,29.75,5,1,21,0.07
2014-7-26,91.4,67.7,54.7,53.4,49.1,44.8,75,55,24,29.93,29.79,8,1,14,0.00
2014-7-27,91.1,69.5,52.7,53.3,46.6,38.3,74,48,16,30.00,29.83,6,2,17,0.00
2014-7-28,87.0,67.4,56.6,57.2,49.3,44.1,90,56,28,29.97,29.79,5,2,17,0.35
2014-7-29,73.0,61.6,55.7,58.5,55.2,52.4,92,81,50,29.97,29.87,3,0,12,0.23
2014-7-30,82.5,63.1,52.6,57.8,53.2,50.9,95,74,34,29.97,29.83,3,1,13,0.02
2014-7-31,83.9,66.8,53.9,55.4,52.3,49.1,90,64,30,29.92,29.76,4,1,13,0.02
2014-8-1,76.8,62.9,55.0,54.3,49.6,45.0,86,64,34,29.95,29.84,6,2,14,0.04
2014-8-2,89.9,65.4,47.5,46.0,41.2,33.8,79,49,14,30.06,29.80,3,1,12,0.00
2014-8-3,91.7,66.9,52.4,50.3,43.8,39.1,72,45,18,29.93,29.68,6,2,17,0.00
2014-8-4,76.0,65.4,57.7,59.7,51.4,48.2,86,61,42,29.87,29.79,6,2,14,0.05
2014-8-5,84.4,65.8,54.1,55.3,49.8,42.9,89,61,24,29.95,29.77,6,1,19,0.23
2014-8-6,83.2,65.0,53.1,57.1,48.6,43.2,89,59,27,29.90,29.78,8,2,16,0.12
2014-8-7,84.3,64.9,50.5,49.6,43.2,39.3,79,50,22,29.93,29.74,6,2,20,0.01
2014-8-8,85.5,68.4,48.8,45.0,38.2,30.0,69,38,16,29.87,29.72,5,2,20,0.00
2014-8-9,74.4,58.0,51.3,42.7,37.3,34.3,58,47,31,29.87,29.81,3,1,14,0.00
2014-8-11,72.9,66.8,62.9,38.5,37.1,34.5,39,34,26,29.91,29.84,2,1,9,0.00
2014-8-12,90.9,69.1,53.2,46.8,42.4,37.8,64,41,18,29.96,29.75,3,1,15,0.00
2014-8-13,84.8,67.6,57.3,55.8,47.6,43.2,92,53,28,29.87,29.66,7,1,24,0.57
2014-8-14,79.0,64.3,56.7,61.2,55.8,52.2,94,77,43,29.86,29.78,3,1,12,0.06
2014-8-15,59.4,57.2,55.8,52.0,51.0,50.3,82,80,76,29.88,29.85,1,1,4,0.00
2014-8-16,89.6,80.6,63.3,51.6,40.7,31.1,43,26,13,29.90,29.76,5,2,14,0.00
2014-8-17,90.9,70.0,52.2,47.4,40.0,34.7,62,37,16,29.90,29.72,5,1,13,0.00
2014-8-18,90.2,68.6,49.4,45.9,39.0,35.2,60,37,17,29.82,29.62,11,1,24,0.00
2014-8-19,85.3,65.6,54.4,53.3,45.5,37.4,89,51,24,29.72,29.50,10,2,25,0.05
2014-8-20,73.4,61.4,55.3,59.1,53.3,47.7,94,76,41,29.82,29.63,6,1,21,0.26
2014-8-21,78.2,62.9,49.2,52.2,46.3,42.0,84,58,31,29.93,29.83,4,1,14,0.00
2014-8-22,71.0,61.4,53.1,55.5,49.9,42.9,92,67,47,29.87,29.68,3,0,13,0.12
2014-8-23,65.0,55.3,50.8,54.2,48.8,43.2,94,79,54,29.89,29.72,5,1,13,0.33
2014-8-24,76.6,60.0,44.8,49.5,43.7,39.8,90,60,27,29.97,29.79,5,1,12,0.00
2014-8-25,84.1,62.8,48.3,51.4,44.7,39.5,88,56,21,29.94,29.74,7,2,18,0.02
2014-8-26,83.6,60.8,50.8,53.8,46.6,41.0,92,62,26,29.95,29.81,11,1,29,0.13
2014-8-27,69.4,56.3,50.4,55.4,49.6,42.6,95,80,43,30.02,29.91,12,2,21,0.29
2014-8-28,73.4,57.9,50.0,53.2,49.0,46.1,95,75,42,30.05,29.93,3,1,10,0.10
2014-8-29,52.6,49.9,47.6,45.9,44.7,43.3,86,82,78,29.97,29.95,2,1,9,0.00
2014-8-31,82.1,71.1,58.3,43.0,38.3,30.8,53,33,17,29.69,29.59,9,3,23,0.00
2014-9-1,84.7,63.4,46.8,45.3,38.5,34.0,70,44,20,29.84,29.68,10,2,26,0.00
2014-9-2,85.9,64.8,46.0,46.3,37.7,33.3,63,40,18,29.90,29.68,6,2,15,0.00
2014-9-3,88.9,70.6,52.1,49.1,36.9,30.7,56,33,14,29.71,29.50,7,2,23,0.00
2014-9-4,75.5,60.0,52.5,48.7,39.2,32.7,71,48,25,29.87,29.57,9,3,28,0.01
2014-9-5,81.4,61.6,45.8,47.3,42.6,39.0,82,54,25,30.00,29.87,6,1,19,0.00
2014-9-6,84.1,64.0,48.1,46.2,40.5,35.2,74,46,20,30.03,29.85,4,1,13,0.00
2014-9-7,81.1,61.9,46.3,51.3,41.5,35.9,68,49,27,29.98,29.77,8,2,14,0.00
2014-9-8,75.8,61.4,54.0,53.3,46.7,42.5,79,60,33,29.85,29.72,4,1,13,0.01
2014-9-9,61.2,54.6,49.0,56.7,51.8,47.3,95,91,76,29.84,29.64,8,1,18,0.87
2014-9-10,49.4,49.1,48.8,47.9,47.5,47.2,95,94,94,29.89,29.84,2,0,6,0.01
2014-9-11,75.0,64.1,54.0,39.5,36.6,32.0,57,38,25,29.89,29.78,5,1,17,0.00
2014-9-12,73.1,55.8,39.1,40.2,35.9,32.6,84,51,24,30.04,29.89,7,2,16,0.00
2014-9-13,79.8,58.4,39.1,40.5,32.4,26.9,70,42,16,30.07,29.88,4,2,13,0.00
2014-9-14,81.7,61.7,44.8,46.3,36.3,29.6,61,41,20,29.98,29.81,6,2,14,0.00
2014-9-15,83.9,63.1,46.5,44.4,38.8,35.2,66,43,20,30.01,29.88,4,1,14,0.00
2014-9-16,86.3,65.3,46.9,46.7,38.7,34.8,68,42,17,30.02,29.79,4,1,12,0.00
2014-9-17,87.1,65.1,46.9,44.7,38.4,35.9,67,41,18,29.89,29.65,5,1,13,0.00
2014-9-18,88.8,66.9,48.6,45.1,38.5,35.1,61,38,17,29.81,29.55,4,1,12,0.00
2014-9-19,86.5,68.0,50.7,45.3,40.4,36.1,61,39,21,29.77,29.61,4,1,14,0.00
2014-9-20,89.2,68.5,49.0,47.2,42.1,38.3,73,43,17,29.90,29.73,7,1,20,0.00
2014-9-21,74.6,58.1,53.0,53.7,45.8,41.9,89,64,43,29.99,29.83,4,1,11,0.08
2014-9-22,68.9,57.6,53.4,57.1,52.5,48.1,95,84,55,30.00,29.88,8,1,13,0.42
2014-9-23,76.3,62.1,49.7,51.3,47.4,44.0,88,62,34,30.02,29.90,4,1,12,0.00
2014-9-24,84.7,65.6,46.7,49.1,42.4,35.7,80,48,18,30.08,29.88,3,1,11,0.00
2014-9-25,85.7,65.9,46.8,48.7,42.1,37.6,71,45,23,29.99,29.76,5,1,13,0.00
2014-9-26,85.2,66.2,49.7,47.9,42.8,39.8,71,46,24,29.86,29.65,4,1,13,0.00
2014-9-27,86.9,64.8,49.6,46.2,42.2,39.0,69,47,22,29.71,29.45,8,2,12,0.00
2014-9-28,67.2,56.1,48.4,50.6,45.0,40.8,91,68,40,29.83,29.60,10,2,21,0.14
2014-9-29,57.4,47.5,41.2,48.4,43.8,38.3,94,87,68,29.93,29.72,6,1,15,0.22
2014-9-30,54.3,44.9,39.6,44.8,40.2,37.5,94,84,57,29.92,29.83,3,0,14,0.02
2014-10-1,51.3,40.3,36.4,43.3,37.0,34.0,94,88,72,30.11,29.84,8,1,19,0.43
2014-10-2,57.9,44.1,33.2,40.2,33.2,27.2,95,70,31,30.30,30.12,5,1,13,0.01
2014-10-3,65.4,46.2,31.6,36.2,29.5,23.7,91,59,23,30.39,30.23,5,1,14,0.00
2014-10-4,70.3,50.9,33.8,36.1,29.4,27.1,80,47,23,30.27,30.00,5,1,15,0.00
2014-10-5,70.1,52.4,36.2,36.6,31.5,28.6,75,48,26,30.08,29.93,5,1,14,0.00
2014-10-6,72.8,52.4,37.0,39.2,33.0,29.5,78,51,23,30.05,29.87,7,2,17,0.00
2014-10-7,73.1,54.5,37.5,37.7,32.5,28.9,72,46,24,30.05,29.90,3,1,13,0.00
2014-10-8,69.0,54.9,42.4,38.7,32.8,28.7,62,44,28,29.97,29.80,4,1,10,0.00
2014-10-9,56.7,50.4,45.2,48.3,39.9,32.3,94,69,48,29.91,29.77,3,0,9,0.20
2014-10-10,63.1,52.6,45.1,49.3,43.6,40.1,95,74,46,30.01,29.91,3,0,10,0.07
2014-10-11,69.5,52.8,39.6,44.9,36.2,25.9,91,59,21,30.04,29.75,5,1,15,0.00
2014-10-12,50.0,44.1,37.1,38.6,34.0,30.5,92,69,47,30.10,29.54,8,2,22,0.16
2014-10-13,57.9,42.8,32.1,37.2,30.5,24.9,95,67,29,30.30,30.10,3,1,12,0.03
2014-10-14,70.3,47.2,28.5,34.7,28.7,23.2,83,53,23,30.36,30.09,4,1,16,0.00
2014-10-15,58.4,45.1,38.7,26.7,25.4,24.3,56,47,28,30.13,29.90,3,1,13,0.00
2014-10-16,73.9,55.4,43.0,35.7,28.9,24.8,52,37,23,29.93,29.77,5,2,18,0.00
2014-10-17,75.2,52.6,38.4,35.5,28.9,26.7,63,43,18,29.99,29.82,4,1,14,0.00
2014-10-18,73.8,52.3,38.7,35.4,30.1,26.4,62,44,22,30.00,29.84,3,1,11,0.00
2014-10-19,74.2,57.1,47.5,37.9,35.2,31.5,58,46,25,29.98,29.83,4,1,11,0.00
2014-10-20,70.5,53.8,41.3,43.4,35.7,32.1,71,52,30,30.03,29.86,4,1,12,0.00
2014-10-21,65.1,51.6,44.4,42.9,38.0,33.8,83,60,40,29.91,29.77,7,2,17,0.12
2014-10-22,57.9,47.0,39.4,47.3,38.9,35.3,92,75,49,30.12,29.88,7,2,19,0.15
2014-10-23,70.2,51.3,34.8,40.9,35.0,30.3,86,58,30,30.23,30.05,5,2,12,0.00
2014-10-24,77.0,54.2,38.2,35.7,30.1,25.7,63,43,19,30.22,30.05,4,2,12,0.00
2014-10-25,77.2,55.5,36.8,31.8,27.0,21.7,54,37,13,30.16,29.89,8,2,19,0.00
2014-10-26,70.6,58.8,47.6,37.0,32.1,26.9,58,38,23,29.89,29.53,7,3,20,0.00
2014-10-27,51.3,43.8,33.6,36.2,26.1,16.9,67,51,30,30.08,29.54,8,3,19,0.00
2014-10-28,61.3,41.3,26.3,25.1,17.7,3.8,76,45,15,30.29,30.07,5,1,14,0.00
2014-10-29,65.7,43.9,26.8,21.1,14.9,9.4,50,32,18,30.35,30.16,6,1,19,0.00
2014-10-30,69.8,49.0,30.9,28.5,21.7,16.9,58,36,20,30.35,30.14,4,1,14,0.00
2014-10-31,70.7,49.9,33.3,27.3,23.0,19.1,58,37,18,30.19,29.93,4,1,15,0.00
2014-11-1,73.5,54.3,42.4,34.9,26.7,22.7,52,36,16,29.93,29.60,6,2,18,0.00
2014-11-2,58.0,47.4,37.2,43.9,33.5,25.9,90,62,31,29.74,29.59,5,2,16,0.26
2014-11-3,47.0,37.3,31.3,35.5,30.5,27.4,92,77,54,30.29,29.73,4,1,14,0.05
2014-11-4,53.7,37.3,27.8,29.6,25.2,16.2,91,66,23,30.42,30.29,3,1,12,0.00
2014-11-5,61.1,40.5,26.0,28.3,24.6,18.9,77,56,28,30.51,30.35,3,1,12,0.00
2014-11-6,66.5,44.6,29.6,29.9,25.0,19.2,75,50,22,30.53,30.26,4,1,11,0.00
2014-11-7,63.3,44.8,31.0,28.7,25.3,21.3,67,49,26,30.30,30.10,4,1,11,0.00
2014-11-8,65.0,44.2,30.5,30.4,25.3,19.4,78,51,26,30.40,30.14,4,1,14,0.00
2014-11-9,63.8,44.1,29.8,25.6,21.4,17.3,62,42,22,30.22,29.68,4,1,15,0.00
2014-11-10,56.9,36.5,25.1,32.1,25.1,21.0,91,66,30,29.91,29.45,11,2,24,0.02
2014-11-11,48.4,33.5,18.7,28.3,19.0,14.8,91,59,30,29.98,29.87,8,2,18,0.02
2014-11-12,34.5,31.0,27.4,17.8,15.2,12.9,54,51,49,29.94,29.89,6,4,15,0.00
2014-11-21,51.5,39.0,25.3,23.0,20.8,16.9,72,50,30,30.18,30.03,3,1,12,0.00
2014-11-22,49.6,34.4,22.7,31.5,22.7,14.2,93,65,31,30.14,29.76,6,2,19,0.00
2014-11-23,34.6,27.1,19.7,30.8,23.1,14.1,94,85,72,30.21,29.77,8,2,17,0.17
2014-11-24,33.4,23.2,18.6,23.3,18.9,14.7,90,84,66,30.57,30.21,4,1,12,0.03
2014-11-25,29.3,23.0,16.1,22.8,18.4,12.1,88,82,72,30.60,30.49,3,0,9,0.01
2014-11-26,49.2,35.4,26.5,31.9,27.5,22.3,88,74,50,30.55,30.44,3,1,9,0.16
2014-11-27,52.9,36.1,24.7,29.1,25.3,20.3,85,67,38,30.57,30.33,4,1,11,0.01
2014-11-28,57.1,40.8,28.4,29.6,24.2,19.6,79,54,29,30.32,29.93,3,1,11,0.00
2014-11-29,58.2,44.3,29.2,20.9,14.6,10.9,60,33,17,29.93,29.75,8,2,18,0.00
2014-11-30,52.8,46.6,40.0,26.0,16.1,11.8,57,30,22,29.97,29.74,9,2,24,0.00
2014-12-1,53.0,41.1,31.5,29.8,25.0,19.6,74,54,31,30.21,29.96,6,2,15,0.00
2014-12-2,53.4,36.2,26.4,22.7,18.8,15.1,64,50,30,30.24,30.07,4,2,14,0.00
2014-12-3,46.3,38.0,32.2,31.9,25.8,18.4,83,62,48,30.15,30.00,8,2,18,0.00
2014-12-4,47.4,38.7,32.9,36.1,31.4,27.1,86,75,57,30.12,29.95,2,0,13,0.00
2014-12-5,54.4,40.9,33.3,37.3,31.5,24.2,88,71,39,30.32,30.08,2,1,7,0.00
2014-12-6,46.5,36.4,29.2,27.9,24.9,21.7,75,64,45,30.39,30.31,3,1,10,0.00
2014-12-7,53.7,39.8,31.5,32.0,26.7,22.1,77,60,38,30.45,30.31,2,1,12,0.00
2014-12-8,49.4,34.5,25.5,24.7,19.8,14.4,72,56,37,30.48,30.38,3,1,12,0.00
2014-12-9,54.6,34.8,19.3,17.4,13.5,9.4,67,44,21,30.51,30.30,3,1,10,0.00
2014-12-10,29.0,27.5,26.3,14.4,12.9,11.9,55,54,52,30.38,30.34,1,0,6,0.00
2014-12-14,34.3,31.4,29.0,28.8,25.9,24.1,88,80,75,30.09,29.84,6,3,15,0.09
2014-12-15,36.8,27.4,16.4,25.4,19.7,10.1,89,73,50,30.41,30.08,4,1,12,0.03
2014-12-16,35.1,24.7,15.8,26.0,18.6,9.5,88,77,66,30.41,30.24,2,0,8,0.01
2014-12-17,39.2,30.5,22.4,30.8,26.1,19.6,92,84,62,30.24,30.02,3,0,7,0.01
2014-12-18,38.5,31.0,27.2,31.9,27.6,24.7,93,87,76,30.25,30.09,2,0,6,0.17
2014-12-19,37.3,28.4,19.7,26.7,21.6,13.6,92,77,52,30.36,30.24,3,0,7,0.01
2014-12-20,35.9,26.0,18.7,25.7,19.4,13.0,90,76,59,30.36,30.24,3,0,11,0.00
2014-12-21,32.6,29.9,26.9,31.1,27.5,24.4,94,90,86,30.25,29.88,2,0,6,0.01
2014-12-22,38.9,30.5,21.9,31.6,26.4,18.1,94,85,70,30.06,29.77,11,1,23,0.16
2014-12-23,34.3,21.1,10.1,18.6,12.8,3.6,92,72,40,30.53,30.07,6,1,14,0.10
2014-12-24,31.6,16.1,3.8,16.0,7.8,-1.6,81,70,46,30.56,29.91,3,1,13,0.03
2014-12-25,40.1,27.2,19.9,27.7,20.8,14.1,90,77,52,29.93,29.63,9,1,19,0.09
2014-12-26,28.1,22.0,16.1,22.4,17.0,11.4,91,81,67,30.27,29.74,7,2,15,0.01
2014-12-27,28.8,15.2,7.1,13.1,7.5,0.5,87,72,48,30.58,30.26,3,1,9,0.02
2014-12-28,24.8,14.8,5.5,16.5,9.3,-0.5,87,78,69,30.56,30.30,3,0,9,0.00
2014-12-29,28.9,20.6,16.8,20.8,16.3,12.8,88,83,70,30.29,30.11,4,0,10,0.06
2014-12-30,25.4,16.0,6.6,15.8,10.3,2.8,89,79,58,30.52,30.25,1,0,6,0.01
2014-12-31,27.9,10.9,0.1,13.7,4.4,-4.6,86,75,51,30.61,30.42,2,0,6,0.00
2015-1-1,29.2,15.3,4.2,16.8,9.4,-0.5,89,77,59,30.41,30.20,4,0,10,0.00
2015-1-2,32.8,15.6,4.9,16.4,8.2,0.3,86,73,45,30.47,30.27,2,0,7,0.01